When you browse on this site, cookies collect data to enhance your experience and personalize the content and advertising you see.
Visit our Privacy Policy to learn more. By continuing to use the site, you agree to this use of cookies and data.
  • In Portugal
  • List of Countries
  • For 7 days
  • Water Temperature
  • Satellite Maps
  • Weather Map
  • Weather Widgets
  • user-avatar
    Login

    Hourly Weather Grzymala

    Today, 23 July, Tuesday

    Time Temperature Precipitation Wind Pressure Humidity
    00:00 +16°C° 0 mm 2 mps 762 mmHg 81%
    01:00 +16°C° 0 mm 2 mps 762 mmHg 84%
    02:00 +16°C° 0 mm 2 mps 761 mmHg 83%
    03:00 +16°C° 0 mm 2 mps 761 mmHg 83%
    04:00 +16°C° 0 mm 2 mps 761 mmHg 82%
    05:00 +16°C° 0.1 mm 1 mps 761 mmHg 83%
    06:00 +16°C° 0.1 mm 1 mps 761 mmHg 85%
    07:00 +16°C° 0.1 mm 1 mps 761 mmHg 87%
    08:00 +16°C° 0 mm 1 mps 761 mmHg 86%
    09:00 +18°C° 0 mm 1 mps 761 mmHg 85%
    10:00 +17°C° 0 mm 2 mps 762 mmHg 83%
    11:00 +17°C° 0 mm 2 mps 761 mmHg 83%
    12:00 +18°C° 0 mm 2 mps 761 mmHg 82%
    13:00 +18°C° 0 mm 2 mps 761 mmHg 82%
    14:00 +18°C° 0 mm 2 mps 761 mmHg 82%
    15:00 +19°C° 0 mm 2 mps 761 mmHg 82%
    16:00 +19°C° 0 mm 2 mps 761 mmHg 83%
    17:00 +20°C° 0 mm 1 mps 761 mmHg 85%
    18:00 +20°C° 0 mm 1 mps 761 mmHg 87%
    19:00 +20°C° 0 mm 1 mps 760 mmHg 90%
    20:00 +20°C° 0 mm 1 mps 761 mmHg 92%
    21:00 +19°C° 0 mm 1 mps 761 mmHg 93%
    22:00 +19°C° 0 mm 1 mps 761 mmHg 95%
    23:00 +19°C° 0 mm 1 mps 761 mmHg 95%

    Tomorrow, 24 July, Wednesday

    Time Temperature Precipitation Wind Pressure Humidity
    00:00 +19°C° 0 mm 1 mps 761 mmHg 96%
    01:00 +19°C° 0 mm 1 mps 761 mmHg 96%
    02:00 +19°C° 0 mm 1 mps 760 mmHg 96%
    03:00 +18°C° 0 mm 1 mps 760 mmHg 96%
    04:00 +18°C° 0 mm 1 mps 760 mmHg 96%
    05:00 +19°C° 0 mm 1 mps 760 mmHg 93%
    06:00 +20°C° 0 mm 1 mps 760 mmHg 89%
    07:00 +21°C° 0 mm 1 mps 760 mmHg 86%
    08:00 +22°C° 0.2 mm 1 mps 760 mmHg 82%
    09:00 +24°C° 0.2 mm 2 mps 761 mmHg 78%
    10:00 +25°C° 0.2 mm 2 mps 761 mmHg 74%
    11:00 +25°C° 0.3 mm 2 mps 761 mmHg 71%
    12:00 +26°C° 0.3 mm 2 mps 760 mmHg 68%
    13:00 +26°C° 0.3 mm 2 mps 760 mmHg 65%
    14:00 +26°C° 0 mm 3 mps 760 mmHg 65%
    15:00 +26°C° 0 mm 3 mps 760 mmHg 65%
    16:00 +26°C° 0 mm 3 mps 760 mmHg 64%
    17:00 +25°C° 0 mm 3 mps 760 mmHg 71%
    18:00 +22°C° 0 mm 3 mps 760 mmHg 77%
    19:00 +21°C° 0 mm 2 mps 760 mmHg 83%
    20:00 +20°C° 0 mm 2 mps 760 mmHg 87%
    21:00 +18°C° 0 mm 2 mps 761 mmHg 90%
    22:00 +18°C° 0 mm 1 mps 761 mmHg 93%
    23:00 +18°C° 0 mm 1 mps 761 mmHg 93%

    Day after tomorrow, 25 July, Thursday

    Time Temperature Precipitation Wind Pressure Humidity
    00:00 +16°C° 0 mm 1 mps 761 mmHg 93%
    01:00 +16°C° 0 mm 1 mps 761 mmHg 92%
    02:00 +16°C° 0 mm 1 mps 761 mmHg 92%
    03:00 +15°C° 0 mm 1 mps 761 mmHg 92%
    04:00 +15°C° 0 mm 1 mps 761 mmHg 92%
    05:00 +18°C° 0 mm 1 mps 761 mmHg 86%
    06:00 +19°C° 0 mm 1 mps 761 mmHg 81%
    07:00 +20°C° 0 mm 2 mps 761 mmHg 75%
    08:00 +21°C° 0 mm 2 mps 761 mmHg 70%
    09:00 +23°C° 0 mm 2 mps 762 mmHg 66%
    10:00 +25°C° 0 mm 3 mps 762 mmHg 61%
    11:00 +25°C° 0 mm 3 mps 762 mmHg 58%
    12:00 +26°C° 0 mm 3 mps 761 mmHg 55%
    13:00 +26°C° 0 mm 3 mps 761 mmHg 52%
    14:00 +26°C° 0 mm 4 mps 761 mmHg 53%
    15:00 +25°C° 0 mm 4 mps 761 mmHg 55%
    16:00 +25°C° 0 mm 4 mps 761 mmHg 57%
    17:00 +22°C° 0 mm 4 mps 761 mmHg 64%
    18:00 +21°C° 0 mm 3 mps 761 mmHg 71%
    19:00 +19°C° 0 mm 2 mps 761 mmHg 78%
    20:00 +18°C° 0 mm 2 mps 761 mmHg 83%
    21:00 +17°C° 0 mm 2 mps 761 mmHg 88%
    22:00 +16°C° 0 mm 2 mps 761 mmHg 93%
    23:00 +16°C° 0 mm 2 mps 761 mmHg 94%

    26 July, Friday

    Time Temperature Precipitation Wind Pressure Humidity
    00:00 +16°C° 0 mm 2 mps 761 mmHg 95%
    01:00 +16°C° 0 mm 2 mps 761 mmHg 96%
    02:00 +16°C° 0 mm 2 mps 760 mmHg 96%
    03:00 +16°C° 0 mm 2 mps 760 mmHg 96%
    04:00 +16°C° 0 mm 2 mps 760 mmHg 96%
    05:00 +17°C° 0 mm 3 mps 760 mmHg 92%
    06:00 +19°C° 0 mm 3 mps 760 mmHg 87%
    07:00 +21°C° 0 mm 3 mps 760 mmHg 83%
    08:00 +22°C° 0 mm 3 mps 760 mmHg 75%
    09:00 +23°C° 0 mm 4 mps 760 mmHg 67%
    10:00 +25°C° 0 mm 4 mps 760 mmHg 59%
    11:00 +26°C° 0 mm 4 mps 760 mmHg 58%
    12:00 +26°C° 0 mm 4 mps 759 mmHg 57%
    13:00 +26°C° 0 mm 5 mps 759 mmHg 56%
    14:00 +25°C° 0.1 mm 5 mps 759 mmHg 59%
    15:00 +25°C° 0.1 mm 5 mps 759 mmHg 62%
    16:00 +23°C° 0.1 mm 5 mps 758 mmHg 65%
    17:00 +22°C° 0 mm 5 mps 758 mmHg 70%
    18:00 +21°C° 0 mm 4 mps 758 mmHg 75%
    19:00 +20°C° 0 mm 4 mps 758 mmHg 80%
    20:00 +19°C° 0 mm 3 mps 759 mmHg 85%
    21:00 +18°C° 0 mm 3 mps 759 mmHg 89%
    22:00 +17°C° 0 mm 2 mps 759 mmHg 94%
    23:00 +17°C° 0 mm 2 mps 759 mmHg 94%

    27 July, Saturday

    Time Temperature Precipitation Wind Pressure Humidity
    00:00 +17°C° 0 mm 2 mps 758 mmHg 94%
    01:00 +17°C° 0 mm 2 mps 758 mmHg 95%
    02:00 +17°C° 0 mm 2 mps 758 mmHg 95%
    03:00 +17°C° 0 mm 2 mps 758 mmHg 95%
    04:00 +17°C° 0 mm 2 mps 758 mmHg 96%
    05:00 +18°C° 0 mm 3 mps 758 mmHg 91%
    06:00 +19°C° 0 mm 3 mps 758 mmHg 87%
    07:00 +21°C° 0 mm 4 mps 758 mmHg 83%
    08:00 +22°C° 0 mm 4 mps 758 mmHg 77%
    09:00 +25°C° 0 mm 4 mps 758 mmHg 71%
    10:00 +26°C° 0 mm 4 mps 758 mmHg 65%
    11:00 +27°C° 0 mm 5 mps 758 mmHg 63%
    12:00 +28°C° 0 mm 5 mps 757 mmHg 61%
    13:00 +28°C° 0 mm 5 mps 757 mmHg 59%
    14:00 +28°C° 0.1 mm 5 mps 757 mmHg 61%
    15:00 +28°C° 0.1 mm 5 mps 756 mmHg 63%
    16:00 +28°C° 0.1 mm 5 mps 756 mmHg 65%
    17:00 +27°C° 0.1 mm 5 mps 756 mmHg 70%
    18:00 +26°C° 0.1 mm 4 mps 756 mmHg 75%
    19:00 +25°C° 0.1 mm 3 mps 756 mmHg 80%
    20:00 +24°C° 0 mm 3 mps 756 mmHg 84%
    21:00 +22°C° 0 mm 3 mps 756 mmHg 87%
    22:00 +21°C° 0 mm 3 mps 756 mmHg 91%
    23:00 +20°C° 0 mm 3 mps 756 mmHg 92%

    28 July, Sunday

    Time Temperature Precipitation Wind Pressure Humidity
    00:00 +20°C° 0 mm 3 mps 756 mmHg 92%
    01:00 +19°C° 0 mm 3 mps 756 mmHg 93%
    02:00 +19°C° 0 mm 3 mps 756 mmHg 93%
    03:00 +19°C° 0 mm 3 mps 756 mmHg 94%
    04:00 +19°C° 0 mm 3 mps 756 mmHg 94%
    05:00 +20°C° 0 mm 3 mps 756 mmHg 89%
    06:00 +22°C° 0 mm 3 mps 757 mmHg 83%
    07:00 +24°C° 0 mm 3 mps 757 mmHg 78%
    08:00 +26°C° 0 mm 4 mps 757 mmHg 71%
    09:00 +27°C° 0 mm 4 mps 757 mmHg 64%
    10:00 +29°C° 0 mm 5 mps 757 mmHg 57%
    11:00 +29°C° 0 mm 5 mps 757 mmHg 56%
    12:00 +30°C° 0 mm 5 mps 757 mmHg 55%
    13:00 +30°C° 0 mm 5 mps 756 mmHg 54%
    14:00 +30°C° 0 mm 5 mps 756 mmHg 56%
    15:00 +29°C° 0 mm 5 mps 756 mmHg 57%
    16:00 +29°C° 0 mm 5 mps 756 mmHg 59%
    17:00 +27°C° 0 mm 5 mps 756 mmHg 65%
    18:00 +26°C° 0 mm 5 mps 756 mmHg 70%
    19:00 +23°C° 0 mm 4 mps 756 mmHg 76%
    20:00 +22°C° 0 mm 4 mps 756 mmHg 79%
    21:00 +21°C° 0 mm 3 mps 757 mmHg 83%
    22:00 +20°C° 0 mm 2 mps 757 mmHg 86%
    23:00 +20°C° 0 mm 2 mps 757 mmHg 87%
    Show more